sat.trackr.live / text

‹ back to catalog

STARLINK-3312

NORAD 50850 · 2022-001AZ

PAYLOAD ACTIVE UNKNOWN

§ Identity

Operator
Country
US
Launch date
2022-01-06
Launch site
AFETR
Launch vehicle
Mass (kg)
RCS (m²)

Purposes: comms

External: N2YO · Heavens-Above · Gunter

§ Orbital elements

Epoch: 2026-09-20T04:44:18.727008Z

Period
94.39 min
Inclination
53.1546°
Eccentricity
0.0001860
Mean motion
15.25656254 rev/d
Perigee alt
487.5 km
Apogee alt
490.1 km
Semi-major
6,867.0 km
B*
7.5777e-4
RAAN
336.6301°
Arg perigee
334.8583°
Mean anomaly
25.2325°
Rev number
26,085

§ Raw data

STARLINK-33121 50850U 22001AZ  26263.19743897  .00019246  00000+0  75777-3 0  99972 50850  53.1546 336.6301 0001860 334.8583  25.2325 15.25656254260856

JSON: /api/v1/satellites/50850 · /tle

For live sub-satellite position, see the globe view (requires WebGL).

§ Visibility from observer

Set your observer location to see the next 7 days of passes ≥ 10°. The values pass through the URL so the page stays shareable.

No JS? Fill the form by hand. The geolocation button needs JavaScript.